FW4185 Weather Reports


Display with metric or nautical units.
time (UTC)temp
F
wind
direction
speed
MPH
gust
MPH
rain 1hr
in
rain 24hr
in
rain mn
in
humidity
%
barometer
mb
20260502204805 42 357 8.0 14.0 0.00 0.00 0.00 54 1014.2
20260502204126 0 357 10.0 10.0 0.00 0.00 0.00
20260502203337 42 356 7.0 16.0 0.00 0.00 0.00 55 1014.2
20260502202657 42 355 9.0 16.0 0.00 0.00 0.00 53 1014.1
20260502202018 0 357 9.0 9.0 0.00 0.00 0.00
20260502201230 43 356 7.0 15.0 0.00 0.00 0.00 56 1014.3
20260502200549 42 356 8.0 16.0 0.00 0.00 0.00 54 1014.4
20260502195911 43 355 8.0 8.0 0.00 0.00 0.00 53 1014.5
20260502195120 43 356 7.0 13.0 0.00 0.00 0.00 51 1014.5
20260502194441 0 357 6.0 9.0 0.00 0.00 0.00
20260502193654 0 356 8.0 8.0 0.00 0.00 0.00
20260502192902 43 356 9.0 15.0 0.00 0.00 0.00 50 1014.5
20260502192223 0 357 7.0 8.0 0.00 0.00 0.00
20260502191450 0 357 8.0 10.0 0.00 0.00 0.00
20260502190522 43 357 8.0 14.0 0.00 0.00 0.00 48 1014.6
20260502185842 44 356 5.0 11.0 0.00 0.00 0.00 47 1014.7
20260502185202 43 357 7.0 11.0 0.00 0.00 0.00 48 1014.7
20260502184521 43 357 8.0 14.0 0.00 0.00 0.00 52 1014.6
20260502183849 44 355 8.0 14.0 0.00 0.00 0.00 53 1014.7
20260502183202 43 356 8.0 14.0 0.00 0.00 0.00 53 1014.7
20260502182524 43 357 6.0 11.0 0.00 0.00 0.00 53 1014.6
20260502181843 0 354 7.0 8.0 0.00 0.00 0.00
20260502181050 42 358 9.0 6.0 0.00 0.00 0.00 57 1014.7
20260502180301 0 356 8.0 10.0 0.00 0.00 0.00
20260502170457 45 358 7.0 12.0 0.00 0.00 0.00 43 1014.4
20260502164345 44 358 7.0 13.0 0.00 0.00 0.00 41 1014.5
20260502163706 44 355 8.0 13.0 0.00 0.00 0.00 43 1014.6
20260502163026 43 358 7.0 11.0 0.00 0.00 0.00 41 1014.7
20260502162356 0 356 5.0 5.0 0.00 0.00 0.00
20260502161555 45 357 7.0 11.0 0.00 0.00 0.00 42 1014.7
20260502160914 44 356 7.0 11.0 0.00 0.00 0.00 43 1014.8
20260502160234 43 356 8.0 14.0 0.00 0.00 0.00 46 1014.7
20260502152236 0 357 7.0 9.0 0.00 0.00 0.00
20260502151448 44 357 4.0 10.0 0.00 0.00 0.00 49 1014.7
20260502150808 44 357 6.0 10.0 0.00 0.00 0.00 49 1014.7
20260502150127 43 356 5.0 10.0 0.00 0.00 0.00 49 1014.7
20260502130414 42 358 5.0 11.0 0.00 0.00 0.00 54 1015.3
20260502123411 41 355 6.0 10.0 0.00 0.00 0.00 50 1015.3
20260502122725 41 357 7.0 10.0 0.00 0.00 0.00 52 1015.3
20260502122041 0 354 5.0 4.0 0.00 0.00 0.00
20260502121142 40 358 4.0 9.0 0.00 0.00 0.00 53 1015.4
20260502120503 42 358 2.0 7.0 0.00 0.00 0.00 52 1015.2
20260502115823 0 357 4.0 7.0 0.00 0.00 0.00
20260502114917 41 359 4.0 7.0 0.00 0.00 0.00 54 1015.1
20260502114242 41 358 0.0 7.0 0.00 0.00 0.00 54 1015.1
20260502113556 40 357 3.0 6.0 0.00 0.00 0.00 55 1015.1
20260502112916 40 358 3.0 7.0 0.00 0.00 0.00 55 1015.1
20260502112236 40 358 1.0 6.0 0.00 0.00 0.00 56 1015.1
20260502111557 38 357 4.0 6.0 0.00 0.00 0.00 56 1015.1
20260502110922 0 357 0.0 4.0 0.00 0.00 0.00
20260502105734 0 358 1.0 2.0 0.00 0.00 0.00
20260502104835 39 357 0.0 0.0 0.00 0.00 0.00 59 1014.9
20260502104155 38 357 0.0 2.0 0.00 0.00 0.00 60 1014.9
20260502103516 0 356 0.0 5.0 0.00 0.00 0.00
20260502102724 0 360 0.0 3.0 0.00 0.00 0.00
20260502101831 37 359 0.0 4.0 0.00 0.00 0.00 64 1014.6
20260502101147 0 356 1.0 4.0 0.00 0.00 0.00
20260502100129 36 357 0.0 0.0 0.00 0.00 0.00 68 1014.4
20260502091230 37 358 1.0 6.0 0.00 0.00 0.00 69 1014.0
20260502090441 36 359 2.0 8.0 0.00 0.00 0.00 68 1014.0
20260502080105 0 357 1.0 2.0 0.00 0.00 0.00
20260502071400 38 358 2.0 10.0 0.00 0.00 0.00 64 1013.3
20260502070721 0 356 4.0 3.0 0.00 0.00 0.00
20260502065752 39 357 6.0 13.0 0.00 0.00 0.00 61 1013.6
20260502065112 39 356 5.0 13.0 0.00 0.00 0.00 61 1013.6
20260502064432 0 357 4.0 2.0 0.00 0.00 0.00
20260502063643 0 358 7.0 3.0 0.00 0.00 0.00
20260502062851 40 356 8.0 10.0 0.00 0.00 0.00 59 1013.8
20260502061948 0 356 6.0 2.0 0.00 0.00 0.00
20260502061157 0 355 7.0 5.0 0.00 0.00 0.00
20260502060408 40 357 4.0 10.0 0.00 0.00 0.00 57 1013.9
20260502055727 39 358 4.0 10.0 0.00 0.00 0.00 57 1013.9
20260502055047 40 355 5.0 10.0 0.00 0.00 0.00 57 1013.9
20260502054408 40 358 4.0 10.0 0.00 0.00 0.00 57 1014.0
20260502053737 40 358 3.0 10.0 0.00 0.00 0.00 58 1014.0
20260502053047 40 357 3.0 10.0 0.00 0.00 0.00 59 1014.0
20260502052408 0 358 4.0 3.0 0.00 0.00 0.00
20260502051507 40 356 7.0 12.0 0.00 0.00 0.00 59 1013.9
20260502050827 40 356 5.0 10.0 0.00 0.00 0.00 57 1013.9
20260502050148 0 356 5.0 7.0 0.00 0.00 0.00
20260502045250 41 356 7.0 12.0 0.00 0.00 0.00 57 1013.7
20260502044611 0 356 5.0 5.0 0.00 0.00 0.00
20260502043820 42 357 7.0 12.0 0.00 0.00 0.00 52 1013.5
20260502043138 42 355 7.0 11.0 0.00 0.00 0.00 53 1013.5
20260502042458 42 355 4.0 10.0 0.00 0.00 0.00 53 1013.3
20260502041819 0 357 4.0 4.0 0.00 0.00 0.00
20260502041028 43 357 3.0 9.0 0.00 0.00 0.00 56 1013.2
20260502040348 43 360 2.0 8.0 0.00 0.00 0.00 57 1013.1
20260502035710 0 359 0.0 7.0 0.00 0.00 0.00
20260502034916 43 357 4.0 8.0 0.00 0.00 0.00 57 1013.1
20260502034236 44 357 2.0 6.0 0.00 0.00 0.00 53 1013.1
20260502033557 0 357 4.0 3.0 0.00 0.00 0.00
20260502032754 0 358 3.0 4.0 0.00 0.00 0.00
20260502031955 0 356 5.0 7.0 0.00 0.00 0.00
20260502030927 0 356 8.0 7.0 0.00 0.00 0.01
20260502030138 0 356 6.0 9.0 0.00 0.00 0.01
20260502025346 0 357 6.0 9.0 0.00 0.00 0.01
20260502024335 43 353 7.0 12.0 0.00 0.00 0.01 71 1013.3
20260502023654 43 357 8.0 12.0 0.00 0.00 0.01 69 1013.3
20260502023015 43 357 5.0 12.0 0.00 0.00 0.01 68 1013.4
20260502022335 43 357 8.0 15.0 0.00 0.00 0.01 69 1013.3
20260502021654 42 358 9.0 12.0 0.00 0.00 0.01 68 1013.3
20260502021014 42 355 8.0 12.0 0.00 0.00 0.01 66 1013.4
20260502020336 0 357 7.0 4.0 0.00 0.00 0.01
20260502015547 0 357 7.0 4.0 0.00 0.00 0.01
20260502014642 42 357 4.0 10.0 0.00 0.00 0.01 71 1013.3
20260502014002 42 356 4.0 10.0 0.00 0.00 0.01 73 1013.2
20260502013323 0 356 4.0 6.0 0.00 0.00 0.01
20260502012533 42 355 6.0 10.0 0.00 0.00 0.01 69 1013.0
20260502011855 0 356 7.0 5.0 0.00 0.00 0.01
20260502010953 0 356 5.0 8.0 0.00 0.00 0.01
20260502010026 0 356 6.0 3.0 0.00 0.00 0.01
20260502005233 42 357 3.0 9.0 0.00 0.00 0.01 74 1012.8
20260502004554 0 357 3.0 8.0 0.00 0.00 0.01
20260502003804 42 357 4.0 10.0 0.00 0.00 0.01 76 1012.6
20260502003125 0 356 5.0 9.0 0.00 0.00 0.01
20260502002007 43 355 5.0 10.0 0.00 0.00 0.01 76 1012.4
20260502001327 43 357 5.0 11.0 0.00 0.00 0.01 73 1012.2
20260502000647 44 355 7.0 11.0 0.00 0.00 0.01 72 1012.1
20260502000007 0 356 5.0 6.0 0.00 0.00 0.01
20260501234955 44 356 5.0 8.0 0.00 0.00 0.01 72 1011.8
20260501234315 44 356 4.0 8.0 0.00 0.00 0.01 71 1011.7
20260501233635 44 358 5.0 7.0 0.00 0.00 0.01 72 1011.6
20260501232957 0 354 1.0 4.0 0.00 0.00 0.01
20260501232205 45 358 4.0 7.0 0.00 0.00 0.01 71 1011.6
20260501231525 45 356 3.0 6.0 0.00 0.00 0.01 67 1011.5
20260501230845 45 360 2.0 6.0 0.00 0.00 0.01 68 1011.4
20260501230206 0 357 2.0 6.0 0.00 0.00 0.01
20260501225414 0 357 3.0 6.0 0.00 0.00 0.01
20260501224624 0 358 0.0 4.0 0.00 0.00 0.01
20260501223839 45 356 0.0 6.0 0.00 0.00 0.01 67 1011.3
20260501223155 0 355 3.0 6.0 0.00 0.00 0.01
20260501222406 47 356 3.0 7.0 0.00 0.00 0.01 62 1011.3
20260501221727 47 356 2.0 7.0 0.00 0.00 0.01 62 1011.2
20260501221046 47 357 2.0 7.0 0.00 0.00 0.01 61 1011.2
20260501220406 48 358 1.0 6.0 0.00 0.00 0.01 61 1011.2
20260501215726 47 357 0.0 7.0 0.00 0.00 0.01 58 1011.2
20260501215046 48 357 2.0 7.0 0.00 0.00 0.01 61 1011.1
20260501214407 47 356 1.0 8.0 0.00 0.00 0.01 62 1011.1
20260501213726 48 357 4.0 9.0 0.00 0.00 0.01 61 1011.1
20260501213048 47 357 3.0 7.0 0.00 0.00 0.01 63 1011.0
20260501212407 47 358 2.0 7.0 0.00 0.00 0.01 62 1011.1
20260501211727 47 357 2.0 7.0 0.00 0.00 0.01 64 1011.1
20260501211048 0 357 0.0 3.0 0.00 0.00 0.01
20260501210256 46 357 3.0 7.0 0.00 0.00 0.01 65 1011.2
20260501205617 0 358 0.0 3.0 0.00 0.00 0.01